Location: Chuathbaluk
(61.5726°N, 159.2454°W)
Time: 14:30:13
(UTC+00:00)

DELFI C3 - Pass Details

Date: 20 January 2021
Orbit: 531 x 550 km, 97.4° (Epoch: 04 March)

Event Time Altitude Azimuth Distance (km) Brightness Sun altitude
Exits shadow 04:37:28 27° 44° (NE) 1,074 ? -16.3°
Drops below altitude 10° 04:40:25 10° 358° (N) 1,843 ? -16.7°
Sets 04:42:46 0° 347° (NNW) 2,743 ? -17.0°
